Location: Brad
(46.1333°N, 22.7833°E)
Time: 21:29:38
(UTC+00:00)

Cosmos 676 Rocket - Pass Details

Date: 03 February 2023
Orbit: 754 x 782 km, 74.0° (Epoch: 22 March)

Event Time Altitude Azimuth Distance (km) Brightness Sun altitude
Rises 17:13:41 0° 209° (SSW) 3,247 7.8 -17.1°
Reaches altitude 10° 17:16:05 10° 212° (SSW) 2,320 7.0 -17.5°
Maximum altitude 17:21:19 64° 294° (WNW) 857 4.4 -18.4°
Drops below altitude 10° 17:26:33 10° 16° (NNE) 2,318 6.3 -19.3°
Enters shadow 17:27:54 - 19° (NNE) 2,838 6.7 -19.5°
